| time (UTC) | temp F | wind direction | speed MPH | gust MPH | rain 1hr in | rain 24hr in | rain mn in | humidity % | barometer mb |
| 20260905234606 | 90 | 303 | 0.0 | 0.0 | 0.00 | 0.00 | 0.00 | 54 | 1007.7 |
| 20260905233059 | 92 | 303 | 0.0 | 2.0 | 0.00 | 0.00 | 0.00 | 53 | 1007.6 |
| 20260905231557 | 94 | 302 | 1.0 | 3.0 | 0.00 | 0.00 | 0.00 | 47 | 1007.6 |
| 20260905230056 | 95 | 335 | 0.0 | 4.0 | 0.00 | 0.00 | 0.00 | 47 | 1007.6 |
| 20260905224555 | 96 | 329 | 1.0 | 5.0 | 0.00 | 0.00 | 0.00 | 45 | 1007.4 |
| 20260905223054 | 96 | 327 | 2.0 | 10.0 | 0.00 | 0.00 | 0.00 | 45 | 1007.4 |
| 20260905221553 | 97 | 330 | 1.0 | 9.0 | 0.00 | 0.00 | 0.00 | 44 | 1007.4 |
| 20260905220053 | 97 | 360 | 2.0 | 8.0 | 0.00 | 0.00 | 0.00 | 44 | 1007.4 |
| 20260905214552 | 98 | 300 | 1.0 | 6.0 | 0.00 | 0.00 | 0.00 | 44 | 1007.3 |
| 20260905213051 | 98 | 295 | 2.0 | 9.0 | 0.00 | 0.00 | 0.00 | 43 | 1007.4 |
| 20260905211549 | 98 | 286 | 2.0 | 6.0 | 0.00 | 0.00 | 0.00 | 43 | 1007.6 |
| 20260905210048 | 98 | 316 | 3.0 | 9.0 | 0.00 | 0.00 | 0.00 | 43 | 1007.7 |
| 20260905204557 | 99 | 360 | 2.0 | 4.0 | 0.00 | 0.00 | 0.00 | 43 | 1007.8 |
| 20260905203053 | 96 | 19 | 0.0 | 2.0 | 0.00 | 0.00 | 0.00 | 46 | 1008.2 |
| 20260905201545 | 98 | 318 | 3.0 | 9.0 | 0.00 | 0.00 | 0.00 | 42 | 1008.5 |
| 20260905200140 | 98 | 298 | 0.0 | 4.0 | 0.00 | 0.00 | 0.00 | 47 | 1008.5 |
| 20260905194545 | 97 | 325 | 0.0 | 7.0 | 0.00 | 0.00 | 0.00 | 45 | 1008.6 |
| 20260905193036 | 98 | 331 | 0.0 | 5.0 | 0.00 | 0.00 | 0.00 | 48 | 1008.9 |
| 20260905191534 | 98 | 360 | 2.0 | 9.0 | 0.00 | 0.00 | 0.00 | 48 | 1009.1 |
| 20260905190035 | 99 | 311 | 2.0 | 9.0 | 0.00 | 0.00 | 0.00 | 44 | 1009.3 |
| 20260905184533 | 98 | 235 | 1.0 | 7.0 | 0.00 | 0.00 | 0.00 | 43 | 1009.5 |
| 20260905183026 | 97 | 294 | 0.0 | 9.0 | 0.00 | 0.00 | 0.00 | 43 | 1009.7 |
| 20260905181533 | 97 | 289 | 1.0 | 5.0 | 0.00 | 0.00 | 0.00 | 45 | 1009.8 |
| 20260905180023 | 97 | 264 | 2.0 | 5.0 | 0.00 | 0.00 | 0.00 | 50 | 1010.0 |
| 20260905174521 | 98 | 38 | 1.0 | 6.0 | 0.00 | 0.00 | 0.00 | 49 | 1010.2 |
| 20260905173020 | 97 | 285 | 2.0 | 7.0 | 0.00 | 0.00 | 0.00 | 48 | 1010.5 |
| 20260905171524 | 95 | 223 | 2.0 | 9.0 | 0.00 | 0.00 | 0.00 | 55 | 1010.7 |
| 20260905170017 | 96 | 295 | 1.0 | 8.0 | 0.00 | 0.00 | 0.00 | 48 | 1010.7 |
| 20260905164515 | 95 | 329 | 0.0 | 4.0 | 0.00 | 0.00 | 0.00 | 48 | 1010.7 |
| 20260905163013 | 96 | 14 | 1.0 | 8.0 | 0.00 | 0.00 | 0.00 | 49 | 1011.0 |
| 20260905161511 | 95 | 30 | 2.0 | 6.0 | 0.00 | 0.00 | 0.00 | 51 | 1011.0 |
| 20260905160032 | 94 | 298 | 1.0 | 5.0 | 0.00 | 0.00 | 0.00 | 54 | 1011.1 |
| 20260905154508 | 94 | 13 | 1.0 | 5.0 | 0.00 | 0.00 | 0.00 | 54 | 1011.2 |
| 20260905153107 | 93 | 296 | 2.0 | 8.0 | 0.00 | 0.00 | 0.00 | 57 | 1011.3 |
| 20260905151505 | 92 | 282 | 0.0 | 0.0 | 0.00 | 0.00 | 0.00 | 56 | 1011.3 |
| 20260905150005 | 92 | 277 | 0.0 | 0.0 | 0.00 | 0.00 | 0.00 | 59 | 1011.4 |
| 20260905144501 | 92 | 302 | 0.0 | 0.0 | 0.00 | 0.00 | 0.00 | 59 | 1011.4 |
| 20260905143059 | 91 | 325 | 0.0 | 0.0 | 0.00 | 0.00 | 0.00 | 62 | 1011.4 |
| 20260905141555 | 89 | 329 | 0.0 | 0.0 | 0.00 | 0.00 | 0.00 | 65 | 1011.5 |
| 20260905140051 | 88 | 288 | 0.0 | 0.0 | 0.00 | 0.00 | 0.00 | 66 | 1011.5 |
| 20260905134552 | 86 | 313 | 0.0 | 0.0 | 0.00 | 0.00 | 0.00 | 70 | 1011.6 |
| 20260905133042 | 85 | 315 | 0.0 | 0.0 | 0.00 | 0.00 | 0.00 | 73 | 1011.7 |
| 20260905131548 | 83 | 302 | 0.0 | 0.0 | 0.00 | 0.00 | 0.00 | 77 | 1011.7 |
| 20260905130035 | 81 | 227 | 0.0 | 0.0 | 0.00 | 0.00 | 0.00 | 79 | 1011.7 |
| 20260905124536 | 79 | 227 | 0.0 | 0.0 | 0.00 | 0.00 | 0.00 | 82 | 1011.7 |
| 20260905123028 | 78 | 226 | 0.0 | 0.0 | 0.00 | 0.00 | 0.00 | 86 | 1011.6 |
| 20260905121527 | 78 | 226 | 0.0 | 0.0 | 0.00 | 0.00 | 0.00 | 85 | 1011.5 |
| 20260905120025 | 77 | 224 | 0.0 | 0.0 | 0.00 | 0.00 | 0.00 | 86 | 1011.3 |
| 20260905114536 | 76 | 223 | 0.0 | 0.0 | 0.00 | 0.00 | 0.00 | 87 | 1011.1 |
| 20260905113032 | 76 | 224 | 0.0 | 0.0 | 0.00 | 0.00 | 0.00 | 86 | 1011.1 |
| 20260905111524 | 76 | 224 | 0.0 | 0.0 | 0.00 | 0.00 | 0.00 | 86 | 1011.0 |
| 20260905110020 | 77 | 223 | 0.0 | 0.0 | 0.00 | 0.00 | 0.00 | 84 | 1010.8 |
| 20260905104522 | 77 | 224 | 0.0 | 0.0 | 0.00 | 0.00 | 0.00 | 85 | 1010.7 |
| 20260905103024 | 76 | 223 | 0.0 | 0.0 | 0.00 | 0.00 | 0.00 | 87 | 1010.6 |
| 20260905101529 | 75 | 223 | 0.0 | 0.0 | 0.00 | 0.00 | 0.00 | 89 | 1010.4 |
| 20260905100022 | 75 | 223 | 0.0 | 0.0 | 0.00 | 0.00 | 0.00 | 88 | 1010.4 |
| 20260905094518 | 75 | 223 | 0.0 | 0.0 | 0.00 | 0.00 | 0.00 | 88 | 1010.5 |
| 20260905093018 | 75 | 223 | 0.0 | 0.0 | 0.00 | 0.00 | 0.00 | 88 | 1010.3 |
| 20260905091519 | 75 | 223 | 0.0 | 0.0 | 0.00 | 0.00 | 0.00 | 89 | 1010.3 |
| 20260905090016 | 75 | 223 | 0.0 | 0.0 | 0.00 | 0.00 | 0.00 | 87 | 1010.0 |
| 20260905084514 | 76 | 223 | 0.0 | 0.0 | 0.00 | 0.00 | 0.00 | 87 | 1010.1 |
| 20260905083013 | 75 | 223 | 0.0 | 0.0 | 0.00 | 0.00 | 0.00 | 88 | 1010.1 |
| 20260905081512 | 75 | 223 | 0.0 | 0.0 | 0.00 | 0.00 | 0.00 | 88 | 1010.1 |
| 20260905080012 | 75 | 223 | 0.0 | 0.0 | 0.00 | 0.00 | 0.00 | 89 | 1010.2 |
| 20260905074510 | 75 | 223 | 0.0 | 0.0 | 0.00 | 0.00 | 0.00 | 89 | 1010.3 |
| 20260905073013 | 75 | 223 | 0.0 | 0.0 | 0.00 | 0.00 | 0.00 | 88 | 1010.3 |
| 20260905071510 | 75 | 223 | 0.0 | 0.0 | 0.00 | 0.00 | 0.00 | 89 | 1010.4 |
| 20260905070008 | 76 | 223 | 0.0 | 0.0 | 0.00 | 0.00 | 0.00 | 88 | 1010.5 |
| 20260905064506 | 76 | 223 | 0.0 | 0.0 | 0.00 | 0.00 | 0.00 | 88 | 1010.6 |
| 20260905063003 | 76 | 223 | 0.0 | 2.0 | 0.00 | 0.00 | 0.00 | 88 | 1010.8 |
| 20260905061612 | 76 | 223 | 0.0 | 1.0 | 0.00 | 0.00 | 0.00 | 87 | 1010.8 |
| 20260905060100 | 76 | 223 | 0.0 | 2.0 | 0.00 | 0.00 | 0.00 | 87 | 1010.8 |
| 20260905054558 | 77 | 225 | 0.0 | 0.0 | 0.00 | 0.00 | 0.00 | 87 | 1010.9 |
| 20260905053102 | 77 | 225 | 0.0 | 0.0 | 0.00 | 0.00 | 0.00 | 86 | 1010.9 |
| 20260905051555 | 77 | 225 | 0.0 | 0.0 | 0.00 | 0.00 | 0.00 | 85 | 1010.9 |
| 20260905050052 | 78 | 225 | 0.0 | 0.0 | 0.00 | 0.00 | 0.00 | 84 | 1010.8 |
| 20260905044553 | 79 | 225 | 0.0 | 0.0 | 0.00 | 0.00 | 0.00 | 81 | 1010.8 |
| 20260905043051 | 79 | 225 | 0.0 | 0.0 | 0.00 | 0.00 | 0.00 | 82 | 1010.9 |
| 20260905041553 | 81 | 225 | 0.0 | 3.0 | 0.00 | 0.00 | 0.00 | 77 | 1011.0 |
| 20260905040050 | 80 | 225 | 0.0 | 3.0 | 0.00 | 0.00 | 0.00 | 78 | 1010.9 |
| 20260905034552 | 82 | 225 | 0.0 | 3.0 | 0.00 | 0.00 | 0.00 | 75 | 1010.9 |
| 20260905033148 | 83 | 223 | 1.0 | 3.0 | 0.00 | 0.00 | 0.00 | 72 | 1011.0 |
| 20260905031548 | 82 | 166 | 1.0 | 3.0 | 0.00 | 0.00 | 0.00 | 76 | 1011.1 |
| 20260905030058 | 80 | 130 | 0.0 | 3.0 | 0.00 | 0.00 | 0.00 | 81 | 1011.3 |
| 20260905024547 | 80 | 130 | 0.0 | 0.0 | 0.00 | 0.00 | 0.00 | 80 | 1011.3 |
| 20260905023046 | 81 | 130 | 0.0 | 3.0 | 0.00 | 0.00 | 0.00 | 76 | 1011.2 |
| 20260905021546 | 81 | 142 | 0.0 | 7.0 | 0.00 | 0.00 | 0.00 | 76 | 1011.3 |
| 20260905020059 | 81 | 209 | 0.0 | 0.0 | 0.00 | 0.00 | 0.00 | 79 | 1011.1 |
| 20260905014547 | 81 | 209 | 0.0 | 3.0 | 0.00 | 0.00 | 0.00 | 78 | 1011.0 |
| 20260905013044 | 82 | 209 | 0.0 | 0.0 | 0.00 | 0.00 | 0.00 | 73 | 1010.8 |
| 20260905011544 | 83 | 209 | 0.0 | 0.0 | 0.00 | 0.00 | 0.00 | 73 | 1010.8 |
| 20260905010052 | 83 | 209 | 0.0 | 0.0 | 0.00 | 0.00 | 0.00 | 69 | 1010.6 |
| 20260905004602 | 85 | 209 | 0.0 | 0.0 | 0.00 | 0.00 | 0.00 | 67 | 1010.5 |
| 20260905003043 | 85 | 209 | 0.0 | 0.0 | 0.00 | 0.00 | 0.00 | 68 | 1010.5 |
| 20260905001542 | 86 | 190 | 0.0 | 0.0 | 0.00 | 0.00 | 0.00 | 72 | 1010.4 |
| 20260905000042 | 88 | 190 | 0.0 | 0.0 | 0.00 | 0.00 | 0.00 | 64 | 1010.3 |